Probability
0 1 3 5 4 3 2 1 0 0 0 0 0 0 0 0 0 0 3 13 21 17 7 4 2 1 0 0 0 0 0 0 0 0 0 0 0 0 0 0 0 0 0 0 0 0 0 0 0
1 1 1 2 2 1 1 0 0 0 0 0 0 0 0 0 0 1 4 14 20 15 7 6 4 2 0 0 0 0 0 0 0 0 0 0 0 0 0 0 0 0 0 0 0 0 0 0 0
0 0 0 1 1 0 0 0 0 0 0 0 0 0 0 0 1 2 5 13 19 16 11 10 9 4 0 0 0 0 0 0 0 0 0 0 0 0 0 0 0 0 0 0 0 0 0 0 0
0 0 1 2 1 0 0 0 0 0 0 0 0 1 1 1 2 5 6 12 19 18 14 15 14 8 2 0 0 0 0 0 0 0 0 0 0 0 0 0 0 0 0 0 0 0 0 0 0
0 1 2 2 1 0 0 0 0 0 0 0 1 3 3 2 4 6 6 10 17 18 15 16 18 13 4 1 0 0 0 0 0 0 0 0 0 0 0 0 0 0 0 0 0 0 0 0 0
1 1 2 2 1 0 0 0 0 0 0 0 2 5 6 5 5 5 5 7 15 21 18 15 17 14 6 2 0 0 0 0 0 0 0 0 0 0 0 0 0 0 0 0 0 0 0 0 0
0 1 1 1 0 0 0 0 0 0 0 0 2 6 10 10 6 4 4 8 18 29 25 15 11 11 7 3 1 0 0 0 0 0 0 0 0 0 0 0 0 0 0 0 0 0 0 0 0
0 0 0 0 0 0 0 0 0 0 0 1 3 9 16 15 8 4 5 10 23 34 29 16 10 9 7 5 2 0 0 0 0 0 0 0 0 0 0 0 0 0 0 0 0 0 0 0 0
0 0 0 0 0 0 0 0 0 0 1 3 6 12 20 20 15 10 10 15 27 36 31 20 15 11 8 6 5 3 1 1 0 0 0 0 0 0 0 1 1 0 0 0 0 0 0 0 0
0 0 0 0 0 0 0 0 0 0 2 6 11 17 23 24 22 20 19 22 31 36 33 29 27 20 12 10 11 7 4 3 2 1 2 1 1 1 1 2 1 0 0 0 0 0 0 0 0
0 0 0 0 0 0 0 0 0 0 2 8 16 23 26 26 25 25 27 32 38 38 34 36 41 34 24 20 18 13 10 9 7 5 4 3 3 3 3 3 2 0 0 0 0 0 0 0 0
0 0 0 0 0 0 0 0 0 1 3 8 17 27 29 28 29 29 33 42 50 46 38 42 52 51 44 36 26 20 18 14 13 13 9 5 5 5 5 5 3 1 0 0 0 0 0 0 0
0 0 0 0 0 0 0 0 0 2 4 7 17 28 33 34 36 37 43 54 62 58 49 53 62 64 61 53 41 33 28 22 23 23 17 11 10 11 11 9 6 1 0 0 0 0 0 0 0
0 0 0 0 0 0 0 0 1 3 5 7 15 26 35 42 46 49 56 64 69 66 61 66 71 71 69 64 56 49 41 34 33 33 26 18 17 19 18 15 8 3 1 1 0 0 0 0 0
0 0 0 0 0 0 0 0 2 4 6 8 15 25 38 49 56 60 65 69 71 70 69 71 72 70 68 67 63 56 49 44 42 40 34 25 23 23 22 18 11 6 4 2 0 0 0 0 0
0 0 0 0 0 0 0 1 4 7 8 11 16 25 42 55 62 64 67 70 73 73 73 71 68 67 66 65 63 57 51 49 48 45 39 32 27 24 21 17 12 9 7 3 1 0 0 0 0
0 0 0 0 0 0 0 2 7 10 10 12 15 25 44 60 65 67 68 71 74 75 74 71 66 64 63 61 60 56 52 51 49 46 41 37 31 25 20 16 13 10 8 5 2 0 0 0 0
0 0 0 0 0 0 0 2 7 10 10 11 16 29 47 62 69 71 70 69 70 72 73 70 65 62 60 57 54 53 52 51 48 43 40 37 31 25 20 18 15 11 9 7 5 2 1 0 0
0 0 0 0 0 0 0 1 5 9 10 11 18 33 49 62 71 73 70 65 65 68 69 66 62 59 56 53 49 48 49 48 45 39 35 31 26 22 21 21 19 15 13 11 9 6 2 0 0
0 0 0 0 0 0 0 1 5 9 11 11 17 30 44 57 66 70 67 63 63 65 65 62 59 55 51 47 43 41 42 43 41 36 30 24 20 19 20 22 20 18 16 13 11 8 5 2 0
0 0 0 0 0 0 0 2 7 12 12 11 14 24 36 47 59 66 64 61 62 62 62 59 54 49 44 40 37 34 35 36 35 33 28 23 19 18 21 22 20 17 15 12 11 9 6 4 2
0 0 0 0 0 0 0 3 9 14 13 10 13 22 30 39 52 60 61 60 60 59 56 52 47 42 36 33 32 29 29 31 33 33 31 26 21 20 22 24 22 18 14 11 10 9 7 6 5
0 0 0 0 0 0 0 2 8 12 10 7 12 21 29 37 47 55 58 56 55 52 47 43 39 34 31 29 27 26 26 28 31 33 33 28 23 21 22 24 23 19 14 12 10 9 9 7 7
0 0 0 0 0 0 0 1 5 6 4 4 11 19 26 34 44 52 54 52 49 43 39 37 35 31 28 26 22 21 23 24 26 28 29 27 25 20 17 19 22 20 17 14 11 10 9 8 7
0 0 0 0 0 0 0 1 2 2 1 3 9 16 22 28 38 46 50 47 41 35 32 33 34 32 28 22 16 14 16 19 21 23 25 24 21 16 14 18 21 21 20 17 12 10 9 8 7
0 0 0 0 0 0 0 0 1 1 1 3 7 13 17 22 28 38 44 40 32 26 24 28 31 30 26 19 12 9 11 16 19 21 21 20 16 14 17 22 23 22 20 16 13 11 10 8 7
0 0 0 0 0 0 0 0 1 1 2 3 7 10 14 16 21 30 35 31 25 21 20 23 26 27 24 19 13 10 12 16 19 20 19 18 16 16 22 25 23 21 19 16 14 11 9 9 7
0 0 0 0 0 0 0 0 1 1 2 4 7 9 11 15 19 25 26 25 23 21 19 21 23 25 24 20 16 15 17 20 21 22 20 19 20 23 26 25 21 19 19 18 15 11 9 8 7
0 0 0 0 0 0 0 0 1 2 3 5 6 7 10 14 18 21 20 20 21 20 18 18 19 20 20 18 16 16 19 22 23 24 23 23 26 29 27 23 20 18 17 17 14 12 10 7 6
0 0 0 0 0 0 0 0 1 2 4 5 6 6 9 13 17 18 17 16 18 18 17 16 16 16 15 14 14 16 18 21 23 25 24 25 28 32 28 21 17 16 15 15 14 13 11 8 5
Wind_Speed
10 13 11 8 4 4 4 7 10 10 11 10 9 10 14 14 10 9 11 19 25 22 19 18 16 16 16 15 15 15 14 14 13 13 12 12 12 12 12 12 13 13 13 14 14 14 14 14 13
11 14 11 6 3 2 2 8 10 12 10 8 8 10 13 15 12 12 14 19 25 22 18 17 17 17 16 15 15 14 14 14 13 12 12 12 12 12 12 12 13 13 13 13 14 14 14 13 12
14 17 9 6 6 2 3 7 9 10 8 7 8 10 12 11 10 10 15 20 22 20 18 18 18 17 16 15 15 14 14 13 13 12 12 11 11 11 12 12 12 13 13 13 13 13 13 12 11
10 9 7 7 6 1 5 6 7 8 7 7 7 9 11 8 8 12 17 20 22 20 19 18 18 17 16 15 15 14 14 13 12 12 12 11 11 12 12 12 12 12 13 13 13 12 12 11 9
10 8 8 8 8 1 6 6 4 7 6 6 9 12 11 9 12 15 16 19 20 20 19 18 18 18 17 16 15 14 13 13 12 12 12 11 12 12 12 12 12 12 12 12 12 12 11 10 8
8 7 8 7 4 0 4 5 4 6 6 7 8 11 8 10 12 13 15 16 18 20 19 17 18 18 16 16 15 14 14 13 12 12 12 11 12 12 12 12 12 12 12 11 11 10 10 8 6
11 10 12 11 5 1 4 3 3 5 6 5 6 11 9 10 12 14 14 14 17 20 19 16 16 15 16 15 15 14 14 13 13 12 12 12 12 12 12 11 11 11 11 10 10 9 9 7 5
11 11 14 11 3 2 3 2 3 3 6 6 4 8 9 12 13 14 13 13 16 18 18 16 16 14 13 13 14 14 14 13 13 13 12 12 12 12 12 11 10 11 10 9 9 8 7 6 4
14 11 10 9 4 2 3 1 3 3 5 5 7 10 11 13 15 14 12 11 13 15 16 16 17 14 13 13 14 14 14 13 13 11 13 12 9 10 9 11 11 10 9 9 8 7 6 5 5
11 10 11 8 5 3 2 1 1 3 4 5 9 11 13 11 13 14 14 13 13 13 14 14 16 14 13 12 11 9 10 10 9 8 9 7 5 6 9 12 11 10 9 8 8 7 6 5 4
13 14 12 10 5 5 4 3 3 3 2 5 9 11 12 13 13 13 13 12 12 11 11 13 13 12 11 9 9 7 6 7 8 9 8 5 5 6 7 5 6 6 8 6 6 6 5 4 2
14 14 12 10 8 6 7 7 5 2 3 7 12 15 16 14 14 13 13 12 12 10 9 10 12 10 8 9 8 7 6 6 6 7 7 5 3 4 5 4 5 5 3 3 4 3 3 3 2
14 14 13 11 9 9 9 9 7 3 4 7 11 15 14 14 12 11 11 10 11 10 10 9 10 8 6 6 5 7 6 7 7 6 5 5 3 3 4 3 3 4 3 3 2 1 2 2 1
12 13 13 13 12 10 10 10 8 4 3 6 8 11 11 10 12 10 9 10 11 10 9 9 10 9 6 5 3 3 4 5 6 6 6 5 4 3 3 3 2 2 3 2 2 2 2 1 1
14 14 14 14 14 12 10 10 7 3 3 5 8 9 11 11 11 12 11 10 11 10 9 9 10 10 8 6 5 4 3 5 5 5 6 5 5 5 3 3 3 2 3 3 2 2 2 3 2
14 15 15 15 15 12 11 11 5 7 5 5 6 8 10 9 10 10 10 9 10 10 9 10 10 11 9 6 4 3 3 4 4 5 5 5 6 6 4 3 3 3 3 3 2 2 2 1 1
16 15 16 15 13 11 11 9 5 6 7 8 7 8 9 10 9 9 9 10 9 9 9 10 9 11 10 7 4 3 3 4 4 4 5 5 6 6 4 3 3 3 3 3 3 3 1 1 1
13 13 13 12 9 10 10 9 6 9 9 8 8 8 9 10 10 10 9 9 9 9 9 9 9 10 9 6 4 3 3 3 4 4 4 6 5 6 4 4 4 3 3 2 2 3 2 1 1
17 15 12 9 6 8 9 9 7 8 8 8 7 7 9 9 10 10 10 10 10 10 9 9 9 9 8 6 6 5 5 4 4 5 6 6 6 6 4 3 4 2 2 3 4 3 2 1 1
16 16 14 9 8 8 9 11 8 4 6 6 6 7 9 11 10 11 10 9 10 10 10 9 9 9 9 7 6 5 5 4 5 4 6 6 6 6 6 4 4 3 3 3 3 2 1 2 2
16 15 14 12 10 10 12 12 7 2 2 5 7 7 9 11 12 12 11 10 10 10 10 9 9 9 9 9 6 6 4 4 4 6 5 5 6 5 3 6 4 4 4 4 4 4 3 1 1
14 14 14 14 12 9 11 11 5 4 5 7 8 8 9 10 12 12 12 11 11 10 9 8 8 8 8 9 8 10 7 6 6 5 5 5 6 6 5 6 5 4 3 5 5 5 3 2 2
14 13 13 14 12 13 11 10 5 4 4 7 10 8 9 10 11 12 12 11 10 10 9 8 8 7 7 8 9 9 7 6 5 5 7 6 5 6 6 5 5 4 3 4 3 3 2 2 2
12 12 12 12 11 13 10 9 6 5 8 9 8 8 9 10 11 11 11 10 9 9 9 9 8 8 8 8 8 8 8 7 7 7 7 6 5 5 6 6 5 5 4 4 3 3 4 1 1
13 11 9 10 10 8 7 8 6 7 7 6 8 9 10 11 11 11 11 11 10 9 9 9 9 9 9 10 9 9 8 8 8 7 7 7 5 5 7 7 5 5 4 4 4 4 3 3 2
13 14 11 10 8 5 3 6 7 4 5 5 7 8 10 11 11 11 11 10 10 9 9 9 9 9 9 9 9 8 8 6 6 7 6 7 6 6 7 7 6 6 6 6 5 4 4 4 3
14 13 14 13 13 9 5 7 7 6 2 2 5 7 8 10 12 12 12 11 10 10 8 8 8 8 8 9 9 8 8 7 7 7 6 6 5 6 9 8 7 7 6 5 5 4 4 4 4
15 12 8 9 9 11 6 4 2 4 1 2 5 8 8 10 11 12 11 11 10 9 8 8 7 7 7 8 8 8 8 7 7 6 7 6 6 6 9 8 8 7 6 6 5 4 4 4 4
12 13 11 9 9 9 6 2 1 4 6 6 5 8 8 10 10 10 10 10 10 10 9 7 7 7 7 7 7 7 7 7 7 6 6 6 6 6 7 7 7 7 7 7 6 6 6 6 5
12 13 12 9 10 9 7 3 2 4 8 6 4 6 8 8 9 10 11 10 10 10 9 8 8 8 7 7 7 7 6 6 6 7 7 6 6 6 7 7 7 7 8 8 7 7 7 7 6
Wind_Direction
231 240 233 244 255 269 290 78 72 67 67 60 52 55 59 60 75 101 126 123 118 123 129 131 130 131 131 129 129 129 127 123 120 117 114 110 107 105 104 103 102 101 101 102 101 99 97 98 99
256 252 241 239 243 280 345 69 76 75 77 80 65 65 74 68 79 106 118 121 121 127 135 132 133 133 133 133 132 131 129 127 125 122 119 116 113 111 109 106 104 104 104 103 103 101 100 100 102
260 263 262 238 239 230 80 74 86 89 85 80 80 66 67 75 86 108 123 127 124 129 128 130 136 135 135 135 134 133 132 131 128 125 122 119 117 115 112 110 108 107 106 105 105 104 103 103 106
257 250 244 257 266 185 95 89 97 101 91 83 85 80 78 73 101 121 133 131 125 129 129 134 137 137 137 137 136 135 134 133 131 129 125 121 118 114 112 112 111 109 108 107 108 107 106 107 111
250 261 258 274 288 60 89 87 96 105 101 90 92 96 93 93 107 125 138 133 134 133 130 138 140 139 140 140 139 138 137 135 133 131 128 126 122 117 115 114 113 111 110 110 109 109 110 112 117
257 254 262 270 269 16 92 109 111 103 96 100 102 104 99 116 120 136 144 140 139 132 132 137 142 142 142 143 143 143 141 140 137 135 133 130 126 122 121 118 117 115 114 114 113 112 113 116 122
262 276 278 276 250 117 83 95 95 109 104 90 103 109 122 128 132 143 147 143 136 132 133 143 145 145 146 146 147 146 144 143 140 137 136 133 129 128 127 123 122 120 119 119 118 118 119 124 133
263 283 290 291 267 118 100 116 99 92 106 102 86 101 129 136 146 144 149 147 138 136 140 149 149 148 151 151 152 151 148 146 144 144 142 138 136 137 137 133 126 125 125 124 124 126 129 138 160
258 267 279 285 301 112 115 146 121 125 122 110 85 97 131 145 149 147 155 155 143 142 146 154 150 154 158 156 153 154 153 152 150 152 153 153 157 151 155 131 134 134 134 134 136 142 147 158 186
243 257 270 290 335 23 99 291 209 192 149 123 100 106 132 151 157 159 163 162 151 148 153 155 152 157 164 158 148 160 163 159 170 161 168 183 169 148 135 134 142 145 149 153 161 167 176 199 197
246 256 274 294 319 329 308 269 247 250 148 122 135 146 152 168 170 168 169 165 154 156 156 152 151 157 163 144 157 165 162 160 181 166 178 183 150 134 130 146 148 159 169 180 169 188 205 196 202
248 266 277 286 305 295 286 285 280 278 127 139 147 161 161 177 175 174 171 166 155 161 157 151 150 156 154 150 164 161 156 168 170 162 182 163 155 145 145 151 166 173 182 177 184 205 176 160 186
242 258 268 272 271 270 275 278 280 258 143 141 147 158 168 175 170 174 166 162 154 161 161 154 145 145 143 142 161 164 157 167 154 154 169 150 149 140 140 143 164 175 160 176 196 191 133 137 184
263 260 261 262 262 256 258 266 264 258 160 155 157 161 168 167 168 163 167 160 161 168 166 152 143 141 144 147 160 140 150 149 146 151 157 156 140 129 135 143 170 167 159 163 167 160 148 176 179
263 268 265 257 251 246 250 255 247 225 200 190 173 168 163 169 172 165 177 169 166 169 167 156 150 147 155 160 172 159 154 147 141 142 148 156 147 142 158 157 177 168 142 146 159 165 170 183 185
254 252 255 250 239 234 238 252 202 174 188 216 191 175 166 164 170 167 165 160 166 167 163 161 165 155 157 165 176 155 155 141 140 141 149 161 151 153 166 166 173 154 153 166 165 188 180 172 166
250 246 251 245 222 225 235 255 167 163 193 206 204 186 172 161 170 163 163 162 163 158 157 161 159 154 160 169 168 159 151 143 141 143 149 162 160 160 175 163 146 170 168 178 187 146 133 117 124
251 249 251 250 205 223 242 255 195 181 201 212 206 187 168 166 170 163 160 158 155 154 157 159 157 157 159 161 159 163 161 155 152 150 155 165 167 171 181 156 161 184 172 159 102 97 87 90 238
269 279 278 267 228 230 255 265 230 196 200 213 205 178 162 164 164 156 158 159 159 157 160 164 166 160 160 164 169 176 176 172 166 161 164 172 174 172 190 160 160 183 155 140 137 131 154 217 218
262 272 277 270 252 249 261 268 259 220 209 212 208 177 163 161 163 158 158 159 162 162 165 170 171 169 171 171 173 175 175 174 172 160 164 175 173 174 187 153 171 166 139 139 137 136 176 223 187
255 260 269 276 276 263 268 265 261 225 243 249 213 188 173 169 166 164 164 166 167 169 175 179 177 176 179 172 168 168 167 179 167 160 167 175 173 183 183 158 172 155 165 155 166 171 197 232 187
251 253 262 270 271 268 270 275 244 182 211 239 232 194 175 171 166 167 167 169 171 172 174 173 177 178 179 174 175 175 176 182 175 167 164 171 176 181 185 168 165 168 173 152 182 176 191 206 227
253 259 263 269 271 271 270 274 277 153 190 235 228 200 176 168 161 161 165 167 169 170 171 172 172 176 177 178 180 180 181 182 172 166 158 169 178 186 186 173 165 170 180 162 166 142 185 203 238
245 254 261 262 266 263 272 271 261 204 198 204 198 180 171 158 149 153 154 156 163 169 172 174 174 177 179 182 185 188 186 181 175 170 163 171 173 182 186 177 168 177 179 161 154 162 190 223 270
229 237 246 244 243 258 298 278 261 211 174 173 173 176 163 152 149 153 155 159 165 173 174 175 174 180 182 185 189 193 189 186 183 176 171 173 178 181 185 179 172 180 168 166 171 183 200 197 205
225 233 240 256 265 263 297 276 280 258 123 135 156 163 156 154 153 157 159 162 167 171 173 174 177 181 183 185 186 189 188 188 187 187 179 179 187 183 175 171 176 177 177 184 178 189 195 186 198
236 234 247 257 267 270 221 236 262 274 128 142 144 148 159 158 156 158 158 163 165 167 169 170 173 177 182 184 180 183 186 188 187 183 187 187 191 182 170 172 176 182 185 184 174 205 199 169 191
241 244 250 259 271 278 267 260 297 315 323 214 173 162 163 157 158 158 159 162 161 161 162 165 168 174 177 178 179 179 184 185 181 185 191 190 195 181 163 173 179 183 183 184 188 202 193 185 199
224 239 250 261 264 270 278 257 259 271 259 243 198 160 154 157 155 149 153 155 155 158 159 161 164 168 173 176 176 174 181 184 181 187 192 193 191 175 173 178 181 184 186 187 193 211 189 194 203
239 234 241 252 266 275 282 272 243 224 268 244 180 138 138 144 142 146 148 150 156 159 161 164 167 168 171 174 174 176 176 180 186 193 192 187 186 183 183 184 187 194 192 188 192 212 201 195 202